Showing default

FLOCK 4BE 29, 60509

Orbit data source: Space-Track

FLOCK 4BE 29, 60509 is a payload satellite owned by Planet (US) in SSO that was launched on Fri, 16 Aug 2024 UTC via an FALCON 9 launch vehicle from the Air Force Western Test Range (AFWTR). Payload-class satellites include a variety of spacecraft equipped with specific instruments for various scientific and technological missions. These include communications satellites like Starlink; space stations such as the ISS; scientific satellites like the Hubble; Earth observation satellites from companies like Planet Labs, Umbra, and HawkEye 360; GPS; miniature CubeSats for education and research; and military/defense satellites.

Loading next visibility...
Identifier
60509, 2024-149AT
Orbit
SSO
Country
Flag of USUS
Related business
Manufacturer
Planet
Mission
Operational Commercial Imaging
Bus & Motor
CUBESAT 3U, Unknown motor
Mass
5.7 kg wet, 5.7 kg dry
Launch date (UTC)
2024-08-16 (2 years ago)
Launch vehicle
FALCON 9
Launch site
Air Force Western Test Range (AFWTR)
Object type
Payload
Rocket body
Debris
Shape & HBR
Box + 2 Pan, 1.0 m
Radar Cross Section
0.072 m², Medium (>0.1 m² and < 1m²)

Expand to show TLE details & history
Last TLE update: 11 hours ago

TLE from 11 hours ago
0 FLOCK 4BE 29
1 60509U 24149AT  26199.79061455  .00025598  00000-0  53151-3 0  9991
2 60509  97.3804 286.1681 0003838 167.5223 192.6121 15.45666248107291
Epoch: 2026-07-18T18:58Z
TLE epoch observation values (Epoch: 2026-07-18T18:58:29.097Z)
Latitude
-0.00008°
Longitude
64.94857°
Altitude
435.097 km
Speed
7.649 km/s
True Right ascension
19h 04m 40s
True Declination
0° 00' 00"
Sunlit
Object was in full shadow at epoch
Visualization orbit readout
Latitude
Unknown
Longitude
Unknown
Altitude
Unknown
Speed
Unknown
Apparent Right ascension
Unknown
Apparent Declination
Unknown
Sunlit
N/A
Visualization observer readout
Local Sidereal Time
18:30:33
Azimuth
Unknown
Elevation
Unknown
Doppler factor
Unknown
Orbital elements
Apogee altitude
428.963 km
Perigee altitude
423.74 km
Semi-major axis
6,804.489 km
Eccentricity
0.00038
Inclination
97.3804°
RAAN
286.1681°
Arg. of periapsis
167.5223°
True anomaly
192.6025°
Mean anomaly
192.6121°
Eccentric anomaly
192.6073°
Mean motion
3.86678 °/min
Orbital period
93.1 mins
BSTAR
0.00053151
Loading maneuver chart data...
Computing Atmospheric mass density...
Loading historical data...
Loading historical data...
Loading historical data...
Loading historical data...
Loading historical data...
Loading historical data...
Loading historical data...

Documentation

Showing up to 5 results
|